Location: Kellogg
(38.0159°N, 90.0546°W)
Time: 12:06:55
(UTC+00:00)

Transit 2A - Pass Details

Date: 16 September 2024
Orbit: 590 x 960 km, 66.7° (Epoch: 11 October)

Event Time Altitude Azimuth Distance (km) Brightness Sun altitude
Rises 22:17:04 0° 154° (SSE) 3,352 9.2 20.4°
Reaches altitude 10° 22:20:47 10° 128° (SE) 2,503 8.4 19.7°
Maximum altitude 22:23:29 14° 100° (E) 2,310 8.0 19.2°
Drops below altitude 10° 22:26:18 10° 73° (ENE) 2,607 8.2 18.6°
Sets 22:30:17 0° 49° (NE) 3,606 9.0 17.9°
